User: anonymous   Login
Location: ?ern� Novina
(50.6762°N, 14.8696°E)
Time: 04:29:25
(UTC+00:00)
Language:

BREEZE-M DEB (TANK) - Orbit

View from above orbital plane
View from above orbital plane
View from above satellite
View from above satellite

Ground track
Ground track

The orbit data is extracted from the following two-line orbital elements,

1 28870U 05036C   21134.02397230  .00000308  00000-0  21782-3 0  9990
2 28870  49.4489 349.8416 5434476 126.0149 297.3700  4.85117966308158
Epoch (UTC): 14 May 2021 00:34:31
Eccentricity: 0.5434476
inclination: 49.4489°
perigee height: 351 km
apogee height: 16372 km
right ascension of ascending node: 349.8416°
argument of perigee: 126.0149°
revolutions per day: 4.85117966
mean anomaly at epoch: 297.3700°
orbit number at epoch: 30815

The dashed part of the orbit path shows where the satellite is in the earth's shadow,  

DLR